| time (UTC) | temp C | wind direction | speed KPH | gust KPH | rain 1hr cm | rain 24hr cm | rain mn cm | humidity % | barometer mb |
| 20260902123503 | 24 | 125 | 0.0 | 0.0 | 0.00 | 0.00 | 0.00 | 84 | 999.0 |
| 20260902123003 | 24 | 125 | 0.0 | 0.0 | 0.00 | 0.00 | 0.00 | 84 | 999.1 |
| 20260902122503 | 24 | 125 | 0.0 | 1.6 | 0.00 | 0.00 | 0.00 | 83 | 998.7 |
| 20260902122004 | 24 | 107 | 0.0 | 1.6 | 0.00 | 0.00 | 0.00 | 83 | 998.7 |
| 20260902121504 | 25 | 116 | 0.0 | 1.6 | 0.00 | 0.00 | 0.00 | 82 | 998.9 |
| 20260902121003 | 25 | 263 | 0.0 | 1.6 | 0.00 | 0.00 | 0.00 | 81 | 998.8 |
| 20260902120503 | 25 | 80 | 1.6 | 8.0 | 0.00 | 0.00 | 0.00 | 80 | 998.6 |
| 20260902120003 | 25 | 86 | 0.0 | 1.6 | 0.00 | 0.00 | 0.00 | 79 | 998.6 |
| 20260902115504 | 25 | 94 | 1.6 | 3.2 | 0.00 | 0.00 | 0.00 | 79 | 998.6 |
| 20260902115004 | 25 | 95 | 0.0 | 1.6 | 0.00 | 0.00 | 0.00 | 79 | 998.6 |
| 20260902114004 | 25 | 174 | 1.6 | 1.6 | 0.00 | 0.00 | 0.00 | 79 | 998.6 |
| 20260902113503 | 25 | 121 | 0.0 | 1.6 | 0.00 | 0.00 | 0.00 | 79 | 998.5 |
| 20260902113003 | 25 | 138 | 1.6 | 3.2 | 0.00 | 0.00 | 0.00 | 79 | 998.4 |
| 20260902112503 | 25 | 173 | 1.6 | 4.8 | 0.00 | 0.00 | 0.00 | 79 | 998.6 |
| 20260902112003 | 25 | 177 | 1.6 | 4.8 | 0.00 | 0.00 | 0.00 | 80 | 998.7 |
| 20260902111503 | 25 | 147 | 1.6 | 3.2 | 0.00 | 0.00 | 0.00 | 81 | 998.6 |
| 20260902111004 | 25 | 132 | 0.0 | 1.6 | 0.00 | 0.00 | 0.00 | 82 | 998.8 |
| 20260902105504 | 24 | 146 | 0.0 | 0.0 | 0.00 | 0.00 | 0.00 | 84 | 998.7 |
| 20260902105004 | 24 | 146 | 0.0 | 0.0 | 0.00 | 0.00 | 0.00 | 84 | 998.7 |
| 20260902104503 | 25 | 146 | 0.0 | 0.0 | 0.00 | 0.00 | 0.00 | 84 | 998.6 |
| 20260902104003 | 25 | 146 | 0.0 | 0.0 | 0.00 | 0.00 | 0.00 | 84 | 998.5 |
| 20260902103503 | 25 | 146 | 0.0 | 0.0 | 0.00 | 0.00 | 0.00 | 84 | 998.5 |
| 20260902103003 | 25 | 146 | 0.0 | 0.0 | 0.00 | 0.00 | 0.00 | 84 | 998.4 |
| 20260902101503 | 25 | 145 | 0.0 | 0.0 | 0.00 | 0.00 | 0.00 | 84 | 998.7 |
| 20260902101003 | 25 | 145 | 0.0 | 0.0 | 0.00 | 0.00 | 0.00 | 84 | 998.6 |
| 20260902100504 | 25 | 145 | 0.0 | 0.0 | 0.00 | 0.00 | 0.00 | 84 | 998.5 |
| 20260902100004 | 25 | 145 | 0.0 | 0.0 | 0.00 | 0.00 | 0.00 | 83 | 998.7 |
| 20260902095504 | 25 | 145 | 0.0 | 0.0 | 0.00 | 0.00 | 0.00 | 83 | 998.6 |
| 20260902094503 | 25 | 145 | 0.0 | 0.0 | 0.00 | 0.00 | 0.00 | 83 | 998.8 |
| 20260902094003 | 25 | 145 | 0.0 | 0.0 | 0.00 | 0.00 | 0.00 | 82 | 998.7 |
| 20260902093503 | 25 | 145 | 0.0 | 0.0 | 0.00 | 0.00 | 0.00 | 82 | 998.7 |
| 20260902093003 | 25 | 145 | 0.0 | 0.0 | 0.00 | 0.00 | 0.00 | 81 | 998.8 |
| 20260902092504 | 25 | 145 | 1.6 | 1.6 | 0.00 | 0.00 | 0.00 | 81 | 998.5 |
| 20260902092004 | 25 | 145 | 1.6 | 1.6 | 0.00 | 0.00 | 0.00 | 81 | 998.7 |
| 20260902091504 | 25 | 144 | 1.6 | 1.6 | 0.00 | 0.00 | 0.00 | 81 | 998.6 |
| 20260902091004 | 25 | 144 | 1.6 | 1.6 | 0.00 | 0.00 | 0.00 | 82 | 998.9 |
| 20260902090503 | 25 | 144 | 0.0 | 1.6 | 0.00 | 0.00 | 0.00 | 81 | 998.9 |
| 20260902090003 | 25 | 144 | 0.0 | 1.6 | 0.00 | 0.00 | 0.00 | 81 | 998.7 |
| 20260902085503 | 25 | 144 | 0.0 | 1.6 | 0.00 | 0.00 | 0.00 | 81 | 998.9 |
| 20260902085003 | 25 | 144 | 0.0 | 3.2 | 0.00 | 0.00 | 0.00 | 81 | 998.6 |
| 20260902084503 | 25 | 146 | 1.6 | 3.2 | 0.00 | 0.00 | 0.00 | 81 | 998.7 |
| 20260902084004 | 25 | 137 | 0.0 | 1.6 | 0.00 | 0.00 | 0.00 | 80 | 998.8 |
| 20260902083504 | 25 | 134 | 0.0 | 3.2 | 0.00 | 0.00 | 0.00 | 80 | 998.8 |
| 20260902083004 | 25 | 146 | 1.6 | 3.2 | 0.00 | 0.00 | 0.00 | 80 | 998.8 |
| 20260902082504 | 25 | 118 | 0.0 | 1.6 | 0.00 | 0.00 | 0.00 | 80 | 998.6 |
| 20260902080503 | 26 | 148 | 1.6 | 3.2 | 0.00 | 0.00 | 0.00 | 79 | 998.6 |
| 20260902080003 | 26 | 128 | 1.6 | 3.2 | 0.00 | 0.00 | 0.00 | 78 | 998.8 |
| 20260902075503 | 26 | 121 | 0.0 | 1.6 | 0.00 | 0.00 | 0.00 | 78 | 998.8 |
| 20260902075003 | 26 | 134 | 1.6 | 3.2 | 0.00 | 0.00 | 0.00 | 78 | 998.9 |
| 20260902074503 | 26 | 140 | 1.6 | 3.2 | 0.00 | 0.00 | 0.00 | 78 | 999.0 |
| 20260902074004 | 26 | 135 | 0.0 | 1.6 | 0.00 | 0.00 | 0.00 | 78 | 998.8 |
| 20260902073504 | 26 | 139 | 1.6 | 3.2 | 0.00 | 0.00 | 0.00 | 78 | 998.8 |
| 20260902073004 | 26 | 154 | 1.6 | 3.2 | 0.00 | 0.00 | 0.00 | 77 | 999.0 |
| 20260902072504 | 26 | 163 | 1.6 | 3.2 | 0.00 | 0.00 | 0.00 | 77 | 998.8 |
| 20260902072004 | 26 | 135 | 0.0 | 1.6 | 0.00 | 0.00 | 0.00 | 77 | 998.8 |
| 20260902071003 | 26 | 128 | 0.0 | 3.2 | 0.00 | 0.00 | 0.00 | 76 | 999.1 |
| 20260902070504 | 26 | 116 | 1.6 | 3.2 | 0.00 | 0.00 | 0.00 | 76 | 999.2 |
| 20260902065503 | 27 | 131 | 1.6 | 3.2 | 0.00 | 0.00 | 0.00 | 75 | 999.1 |
| 20260902064504 | 27 | 115 | 1.6 | 3.2 | 0.00 | 0.00 | 0.00 | 75 | 999.0 |
| 20260902064004 | 27 | 114 | 1.6 | 3.2 | 0.00 | 0.00 | 0.00 | 75 | 999.3 |
| 20260902063504 | 27 | 138 | 1.6 | 1.6 | 0.00 | 0.00 | 0.00 | 75 | 999.1 |
| 20260902062503 | 27 | 134 | 1.6 | 3.2 | 0.00 | 0.00 | 0.00 | 74 | 999.2 |
| 20260902062003 | 27 | 113 | 0.0 | 1.6 | 0.00 | 0.00 | 0.00 | 74 | 999.2 |
| 20260902061503 | 27 | 123 | 1.6 | 1.6 | 0.00 | 0.00 | 0.00 | 74 | 999.2 |
| 20260902061003 | 28 | 136 | 1.6 | 3.2 | 0.00 | 0.00 | 0.00 | 73 | 999.1 |
| 20260902060503 | 28 | 155 | 1.6 | 1.6 | 0.00 | 0.00 | 0.00 | 73 | 999.0 |
| 20260902055004 | 28 | 157 | 1.6 | 4.8 | 0.00 | 0.00 | 0.00 | 71 | 999.0 |
| 20260902054504 | 28 | 159 | 1.6 | 4.8 | 0.00 | 0.00 | 0.00 | 71 | 999.1 |
| 20260902054004 | 28 | 153 | 1.6 | 4.8 | 0.00 | 0.00 | 0.00 | 70 | 999.1 |
| 20260902053503 | 28 | 188 | 1.6 | 8.0 | 0.00 | 0.00 | 0.00 | 70 | 998.9 |
| 20260902053003 | 28 | 176 | 3.2 | 8.0 | 0.00 | 0.00 | 0.00 | 70 | 998.7 |
| 20260902052503 | 28 | 186 | 4.8 | 8.0 | 0.00 | 0.00 | 0.00 | 69 | 999.0 |
| 20260902051503 | 29 | 160 | 3.2 | 11.3 | 0.00 | 0.00 | 0.00 | 68 | 998.8 |
| 20260902051003 | 29 | 168 | 4.8 | 11.3 | 0.00 | 0.00 | 0.00 | 68 | 998.9 |
| 20260902050504 | 28 | 181 | 8.0 | 11.3 | 0.00 | 0.00 | 0.00 | 68 | 998.9 |
| 20260902050007 | 28 | 156 | 3.2 | 8.0 | 0.00 | 0.00 | 0.00 | 67 | 998.8 |
| 20260902045504 | 28 | 186 | 3.2 | 4.8 | 0.00 | 0.00 | 0.00 | 67 | 999.0 |
| 20260902044503 | 29 | 151 | 3.2 | 4.8 | 0.00 | 0.00 | 0.00 | 66 | 999.0 |
| 20260902044003 | 29 | 180 | 3.2 | 4.8 | 0.00 | 0.00 | 0.00 | 66 | 998.9 |
| 20260902043004 | 29 | 163 | 4.8 | 8.0 | 0.00 | 0.00 | 0.00 | 65 | 998.8 |
| 20260902041004 | 30 | 152 | 1.6 | 4.8 | 0.00 | 0.00 | 0.00 | 64 | 998.8 |
| 20260902040503 | 29 | 158 | 3.2 | 3.2 | 0.00 | 0.00 | 0.00 | 64 | 998.9 |
| 20260902040003 | 30 | 145 | 3.2 | 3.2 | 0.00 | 0.00 | 0.00 | 64 | 998.8 |
| 20260902035503 | 30 | 134 | 1.6 | 3.2 | 0.00 | 0.00 | 0.00 | 64 | 998.8 |
| 20260902035003 | 30 | 145 | 3.2 | 4.8 | 0.00 | 0.00 | 0.00 | 63 | 999.0 |
| 20260902034004 | 30 | 155 | 3.2 | 4.8 | 0.00 | 0.00 | 0.00 | 63 | 998.7 |
| 20260902033503 | 30 | 151 | 1.6 | 3.2 | 0.00 | 0.00 | 0.00 | 62 | 998.5 |
| 20260902032504 | 30 | 160 | 1.6 | 3.2 | 0.00 | 0.00 | 0.00 | 61 | 998.5 |
| 20260902032004 | 30 | 174 | 1.6 | 4.8 | 0.00 | 0.00 | 0.00 | 61 | 998.6 |
| 20260902031504 | 30 | 149 | 1.6 | 4.8 | 0.00 | 0.00 | 0.00 | 61 | 998.5 |
| 20260902030503 | 30 | 142 | 1.6 | 1.6 | 0.00 | 0.00 | 0.00 | 60 | 998.3 |
| 20260902030003 | 30 | 129 | 1.6 | 3.2 | 0.00 | 0.00 | 0.00 | 59 | 998.1 |
| 20260902025003 | 31 | 163 | 3.2 | 8.0 | 0.00 | 0.00 | 0.00 | 58 | 997.9 |
| 20260902024503 | 31 | 163 | 3.2 | 8.0 | 0.00 | 0.00 | 0.00 | 58 | 997.7 |
| 20260902024004 | 31 | 143 | 3.2 | 8.0 | 0.00 | 0.00 | 0.00 | 57 | 997.7 |
| 20260902023504 | 31 | 164 | 1.6 | 4.8 | 0.00 | 0.00 | 0.00 | 57 | 997.7 |
| 20260902023004 | 31 | 146 | 1.6 | 4.8 | 0.00 | 0.00 | 0.00 | 57 | 997.6 |
| 20260902022503 | 31 | 140 | 1.6 | 3.2 | 0.00 | 0.00 | 0.00 | 57 | 997.5 |
| 20260902022004 | 31 | 135 | 1.6 | 1.6 | 0.00 | 0.00 | 0.00 | 56 | 997.5 |
| 20260902021504 | 31 | 131 | 0.0 | 3.2 | 0.00 | 0.00 | 0.00 | 56 | 997.4 |
| 20260902020004 | 31 | 205 | 1.6 | 4.8 | 0.00 | 0.00 | 0.00 | 54 | 997.2 |
| 20260902015004 | 31 | 133 | 3.2 | 8.0 | 0.00 | 0.00 | 0.00 | 54 | 997.1 |
| 20260902014503 | 31 | 134 | 3.2 | 4.8 | 0.00 | 0.00 | 0.00 | 53 | 997.1 |
| 20260902014003 | 32 | 163 | 1.6 | 9.7 | 0.00 | 0.00 | 0.00 | 53 | 997.0 |
| 20260902013503 | 32 | 86 | 1.6 | 4.8 | 0.00 | 0.00 | 0.00 | 53 | 997.1 |
| 20260902013004 | 32 | 112 | 1.6 | 4.8 | 0.00 | 0.00 | 0.00 | 52 | 996.9 |
| 20260902012504 | 32 | 179 | 3.2 | 4.8 | 0.00 | 0.00 | 0.00 | 52 | 997.0 |
| 20260902012004 | 32 | 174 | 1.6 | 4.8 | 0.00 | 0.00 | 0.00 | 51 | 996.8 |
| 20260902011504 | 32 | 139 | 1.6 | 3.2 | 0.00 | 0.00 | 0.00 | 51 | 996.5 |
| 20260902011004 | 32 | 144 | 1.6 | 3.2 | 0.00 | 0.00 | 0.00 | 50 | 996.8 |
| 20260902010503 | 32 | 110 | 1.6 | 8.0 | 0.00 | 0.00 | 0.00 | 50 | 996.8 |
| 20260902010004 | 33 | 166 | 1.6 | 4.8 | 0.00 | 0.00 | 0.00 | 49 | 996.7 |
| 20260902005004 | 33 | 115 | 1.6 | 3.2 | 0.00 | 0.00 | 0.00 | 49 | 996.6 |
| 20260902004503 | 33 | 181 | 1.6 | 3.2 | 0.00 | 0.00 | 0.00 | 48 | 996.9 |
| 20260902004003 | 33 | 108 | 1.6 | 3.2 | 0.00 | 0.00 | 0.00 | 48 | 997.0 |
| 20260902003503 | 33 | 157 | 1.6 | 3.2 | 0.00 | 0.00 | 0.00 | 48 | 996.8 |
| 20260902003003 | 33 | 90 | 0.0 | 4.8 | 0.00 | 0.00 | 0.00 | 48 | 997.2 |
| 20260902002503 | 33 | 105 | 3.2 | 8.0 | 0.00 | 0.00 | 0.00 | 47 | 996.9 |
| 20260902002003 | 34 | 124 | 3.2 | 9.7 | 0.00 | 0.00 | 0.00 | 47 | 997.0 |
| 20260902001504 | 34 | 120 | 3.2 | 11.3 | 0.00 | 0.00 | 0.00 | 47 | 996.9 |
| 20260902001003 | 34 | 156 | 3.2 | 9.7 | 0.00 | 0.00 | 0.00 | 47 | 997.1 |
| 20260902000504 | 34 | 194 | 4.8 | 9.7 | 0.00 | 0.00 | 0.00 | 47 | 996.9 |
| 20260902000004 | 34 | 79 | 1.6 | 9.7 | 0.00 | 0.00 | 0.00 | 47 | 996.9 |
| 20260901235504 | 35 | 76 | 3.2 | 8.0 | 0.00 | 0.00 | 0.00 | 46 | 996.9 |
| 20260901235004 | 35 | 108 | 3.2 | 8.0 | 0.00 | 0.00 | 0.00 | 45 | 996.7 |
| 20260901234503 | 35 | 117 | 1.6 | 12.9 | 0.00 | 0.00 | 0.00 | 45 | 996.7 |
| 20260901234003 | 35 | 87 | 3.2 | 8.0 | 0.00 | 0.00 | 0.00 | 44 | 996.9 |
| 20260901233003 | 36 | 186 | 3.2 | 9.7 | 0.00 | 0.00 | 0.00 | 44 | 997.0 |
| 20260901232504 | 35 | 128 | 3.2 | 12.9 | 0.00 | 0.00 | 0.00 | 44 | 996.9 |
| 20260901232004 | 36 | 61 | 6.4 | 9.7 | 0.00 | 0.00 | 0.00 | 44 | 996.9 |
| 20260901231504 | 36 | 64 | 6.4 | 12.9 | 0.00 | 0.00 | 0.00 | 44 | 996.7 |
| 20260901231004 | 36 | 85 | 3.2 | 12.9 | 0.00 | 0.00 | 0.00 | 43 | 996.8 |
| 20260901230504 | 36 | 153 | 4.8 | 12.9 | 0.00 | 0.00 | 0.00 | 42 | 996.9 |
| 20260901230004 | 36 | 74 | 3.2 | 8.0 | 0.00 | 0.00 | 0.00 | 43 | 996.8 |
| 20260901225504 | 36 | 76 | 3.2 | 11.3 | 0.00 | 0.00 | 0.00 | 43 | 996.7 |
| 20260901225004 | 36 | 77 | 1.6 | 4.8 | 0.00 | 0.00 | 0.00 | 43 | 996.8 |
| 20260901224504 | 35 | 89 | 3.2 | 8.0 | 0.00 | 0.00 | 0.00 | 45 | 996.9 |
| 20260901224004 | 35 | 122 | 4.8 | 11.3 | 0.00 | 0.00 | 0.00 | 45 | 996.9 |
| 20260901223005 | 36 | 160 | 4.8 | 12.9 | 0.00 | 0.00 | 0.00 | 42 | 996.6 |
| 20260901222504 | 37 | 209 | 6.4 | 11.3 | 0.00 | 0.00 | 0.00 | 42 | 996.9 |
| 20260901222004 | 37 | 72 | 4.8 | 14.5 | 0.00 | 0.00 | 0.00 | 43 | 996.8 |
| 20260901221004 | 37 | 118 | 0.0 | 3.2 | 0.00 | 0.00 | 0.00 | 39 | 997.1 |
| 20260901220505 | 37 | 106 | 1.6 | 4.8 | 0.00 | 0.00 | 0.00 | 40 | 996.8 |
| 20260901220005 | 36 | 182 | 1.6 | 3.2 | 0.00 | 0.00 | 0.00 | 42 | 996.9 |
| 20260901215505 | 36 | 70 | 3.2 | 8.0 | 0.00 | 0.00 | 0.00 | 43 | 996.9 |
| 20260901215005 | 35 | 81 | 3.2 | 4.8 | 0.00 | 0.00 | 0.00 | 44 | 996.9 |
| 20260901214504 | 36 | 91 | 1.6 | 8.0 | 0.00 | 0.00 | 0.00 | 43 | 996.7 |
| 20260901214005 | 36 | 58 | 4.8 | 11.3 | 0.00 | 0.00 | 0.00 | 43 | 997.0 |
| 20260901213505 | 36 | 182 | 4.8 | 16.1 | 0.00 | 0.00 | 0.00 | 44 | 996.9 |
| 20260901213005 | 37 | 86 | 4.8 | 16.1 | 0.00 | 0.00 | 0.00 | 42 | 997.0 |
| 20260901212505 | 37 | 119 | 3.2 | 8.0 | 0.00 | 0.00 | 0.00 | 41 | 997.3 |
| 20260901212005 | 38 | 174 | 3.2 | 8.0 | 0.00 | 0.00 | 0.00 | 41 | 997.2 |
| 20260901210005 | 37 | 185 | 3.2 | 4.8 | 0.00 | 0.00 | 0.00 | 42 | 997.4 |
| 20260901205505 | 36 | 167 | 1.6 | 4.8 | 0.00 | 0.00 | 0.00 | 44 | 997.4 |
| 20260901205005 | 37 | 162 | 4.8 | 8.0 | 0.00 | 0.00 | 0.00 | 43 | 997.7 |
| 20260901204005 | 37 | 110 | 1.6 | 4.8 | 0.00 | 0.00 | 0.00 | 42 | 997.6 |
| 20260901203504 | 36 | 162 | 8.0 | 12.9 | 0.00 | 0.00 | 0.00 | 42 | 997.7 |
| 20260901203005 | 37 | 73 | 3.2 | 8.0 | 0.00 | 0.00 | 0.00 | 41 | 997.9 |
| 20260901202505 | 37 | 127 | 1.6 | 3.2 | 0.00 | 0.00 | 0.00 | 42 | 997.9 |
| 20260901202005 | 37 | 98 | 3.2 | 4.8 | 0.00 | 0.00 | 0.00 | 41 | 998.0 |
| 20260901201505 | 37 | 169 | 1.6 | 9.7 | 0.00 | 0.00 | 0.00 | 43 | 998.1 |
| 20260901201005 | 37 | 173 | 4.8 | 11.3 | 0.00 | 0.00 | 0.00 | 43 | 998.1 |
| 20260901200505 | 36 | 276 | 4.8 | 9.7 | 0.00 | 0.00 | 0.00 | 43 | 998.1 |
| 20260901200004 | 36 | 158 | 3.2 | 14.5 | 0.00 | 0.00 | 0.00 | 43 | 998.1 |
| 20260901195504 | 36 | 197 | 9.7 | 14.5 | 0.00 | 0.00 | 0.00 | 43 | 998.2 |
| 20260901194505 | 36 | 146 | 3.2 | 9.7 | 0.00 | 0.00 | 0.00 | 45 | 998.5 |
| 20260901194005 | 36 | 96 | 3.2 | 9.7 | 0.00 | 0.00 | 0.00 | 45 | 998.3 |
| 20260901193504 | 36 | 78 | 4.8 | 8.0 | 0.00 | 0.00 | 0.00 | 45 | 998.5 |
| 20260901193005 | 37 | 79 | 3.2 | 8.0 | 0.00 | 0.00 | 0.00 | 44 | 998.5 |
| 20260901192505 | 37 | 103 | 3.2 | 4.8 | 0.00 | 0.00 | 0.00 | 44 | 998.7 |
| 20260901192005 | 36 | 178 | 3.2 | 4.8 | 0.00 | 0.00 | 0.00 | 44 | 998.7 |
| 20260901191005 | 36 | 133 | 3.2 | 12.9 | 0.00 | 0.00 | 0.00 | 46 | 999.0 |
| 20260901190505 | 36 | 203 | 6.4 | 11.3 | 0.00 | 0.00 | 0.00 | 45 | 998.9 |
| 20260901190005 | 35 | 119 | 3.2 | 9.7 | 0.00 | 0.00 | 0.00 | 46 | 999.2 |
| 20260901185505 | 35 | 167 | 4.8 | 9.7 | 0.00 | 0.00 | 0.00 | 47 | 999.1 |
| 20260901184504 | 35 | 81 | 1.6 | 4.8 | 0.00 | 0.00 | 0.00 | 46 | 999.1 |
| 20260901184005 | 35 | 168 | 3.2 | 9.7 | 0.00 | 0.00 | 0.00 | 49 | 999.4 |
| 20260901183504 | 36 | 105 | 4.8 | 4.8 | 0.00 | 0.00 | 0.00 | 47 | 999.4 |
| 20260901183005 | 37 | 146 | 3.2 | 4.8 | 0.00 | 0.00 | 0.00 | 46 | 999.5 |
| 20260901182505 | 36 | 118 | 3.2 | 8.0 | 0.00 | 0.00 | 0.00 | 47 | 999.4 |
| 20260901180505 | 35 | 155 | 3.2 | 8.0 | 0.00 | 0.00 | 0.00 | 48 | 999.8 |
| 20260901180005 | 35 | 77 | 1.6 | 9.7 | 0.00 | 0.00 | 0.00 | 49 | 999.8 |
| 20260901175505 | 35 | 85 | 4.8 | 8.0 | 0.00 | 0.00 | 0.00 | 49 | 999.9 |
| 20260901175004 | 35 | 94 | 1.6 | 3.2 | 0.00 | 0.00 | 0.00 | 51 | 1000.2 |
| 20260901174505 | 35 | 131 | 1.6 | 4.8 | 0.00 | 0.00 | 0.00 | 49 | 1000.3 |
| 20260901174007 | 34 | 199 | 3.2 | 4.8 | 0.00 | 0.00 | 0.00 | 50 | 1000.2 |
| 20260901173005 | 35 | 162 | 4.8 | 8.0 | 0.00 | 0.00 | 0.00 | 51 | 1000.5 |
| 20260901172504 | 35 | 160 | 3.2 | 9.7 | 0.00 | 0.00 | 0.00 | 51 | 1000.4 |
| 20260901172005 | 34 | 178 | 4.8 | 8.0 | 0.00 | 0.00 | 0.00 | 52 | 1000.3 |
| 20260901171505 | 34 | 80 | 1.6 | 4.8 | 0.00 | 0.00 | 0.00 | 52 | 1000.4 |
| 20260901170505 | 34 | 153 | 0.0 | 4.8 | 0.00 | 0.00 | 0.00 | 53 | 1000.6 |
| 20260901170005 | 34 | 109 | 1.6 | 3.2 | 0.00 | 0.00 | 0.00 | 53 | 1000.6 |
| 20260901165004 | 34 | 143 | 3.2 | 4.8 | 0.00 | 0.00 | 0.00 | 53 | 1000.7 |
| 20260901164505 | 34 | 104 | 1.6 | 4.8 | 0.00 | 0.00 | 0.00 | 54 | 1000.8 |
| 20260901163505 | 33 | 91 | 1.6 | 3.2 | 0.00 | 0.00 | 0.00 | 55 | 1000.8 |
| 20260901163005 | 33 | 106 | 3.2 | 9.7 | 0.00 | 0.00 | 0.00 | 56 | 1001.1 |
| 20260901162505 | 33 | 83 | 1.6 | 3.2 | 0.00 | 0.00 | 0.00 | 58 | 1001.0 |
| 20260901162004 | 33 | 88 | 1.6 | 4.8 | 0.00 | 0.00 | 0.00 | 56 | 1001.0 |
| 20260901161505 | 33 | 135 | 0.0 | 3.2 | 0.00 | 0.00 | 0.00 | 57 | 1000.9 |
| 20260901160505 | 33 | 170 | 3.2 | 3.2 | 0.00 | 0.00 | 0.00 | 56 | 1001.1 |
| 20260901160005 | 33 | 102 | 1.6 | 1.6 | 0.00 | 0.00 | 0.00 | 56 | 1001.0 |
| 20260901155505 | 32 | 112 | 1.6 | 3.2 | 0.00 | 0.00 | 0.00 | 60 | 1001.2 |
| 20260901155005 | 32 | 185 | 1.6 | 3.2 | 0.00 | 0.00 | 0.00 | 61 | 1001.1 |
| 20260901154505 | 32 | 87 | 1.6 | 3.2 | 0.00 | 0.00 | 0.00 | 62 | 1001.2 |
| 20260901154005 | 32 | 170 | 3.2 | 3.2 | 0.00 | 0.00 | 0.00 | 63 | 1001.0 |
| 20260901153004 | 32 | 100 | 1.6 | 3.2 | 0.00 | 0.00 | 0.00 | 63 | 1000.9 |
| 20260901152505 | 31 | 96 | 1.6 | 3.2 | 0.00 | 0.00 | 0.00 | 65 | 1000.8 |
| 20260901152004 | 31 | 68 | 1.6 | 3.2 | 0.00 | 0.00 | 0.00 | 65 | 1001.0 |
| 20260901151505 | 31 | 103 | 1.6 | 3.2 | 0.00 | 0.00 | 0.00 | 68 | 1001.0 |
| 20260901151004 | 31 | 198 | 1.6 | 3.2 | 0.00 | 0.00 | 0.00 | 68 | 1001.1 |
| 20260901150505 | 30 | 76 | 1.6 | 4.8 | 0.00 | 0.00 | 0.00 | 71 | 1001.0 |
| 20260901150005 | 30 | 212 | 1.6 | 3.2 | 0.00 | 0.00 | 0.00 | 71 | 1001.1 |
| 20260901145005 | 28 | 259 | 3.2 | 3.2 | 0.00 | 0.00 | 0.00 | 76 | 1001.2 |
| 20260901144505 | 28 | 259 | 3.2 | 3.2 | 0.00 | 0.00 | 0.00 | 76 | 1001.1 |
| 20260901144005 | 28 | 259 | 3.2 | 3.2 | 0.00 | 0.00 | 0.00 | 76 | 1001.0 |
| 20260901143505 | 28 | 259 | 3.2 | 3.2 | 0.00 | 0.00 | 0.00 | 76 | 1001.1 |
| 20260901143005 | 28 | 259 | 3.2 | 3.2 | 0.00 | 0.00 | 0.00 | 76 | 1001.2 |
| 20260901142505 | 24 | 136 | 0.0 | 1.6 | 0.00 | 0.00 | 0.00 | 91 | 1001.2 |
| 20260901142005 | 24 | 136 | 0.0 | 1.6 | 0.00 | 0.00 | 0.00 | 91 | 1001.1 |
| 20260901141505 | 24 | 136 | 0.0 | 1.6 | 0.00 | 0.00 | 0.00 | 91 | 1001.3 |
| 20260901141004 | 24 | 136 | 0.0 | 1.6 | 0.00 | 0.00 | 0.00 | 91 | 1001.4 |
| 20260901140505 | 24 | 136 | 0.0 | 1.6 | 0.00 | 0.00 | 0.00 | 91 | 1001.3 |
| 20260901140004 | 24 | 136 | 0.0 | 1.6 | 0.00 | 0.00 | 0.00 | 91 | 1001.3 |
| 20260901135504 | 24 | 136 | 0.0 | 1.6 | 0.00 | 0.00 | 0.00 | 91 | 1001.2 |
| 20260901135005 | 24 | 136 | 0.0 | 1.6 | 0.00 | 0.00 | 0.00 | 91 | 1001.3 |
| 20260901134506 | 24 | 136 | 0.0 | 1.6 | 0.00 | 0.00 | 0.00 | 91 | 1001.1 |
| 20260901134004 | 24 | 136 | 0.0 | 1.6 | 0.00 | 0.00 | 0.00 | 91 | 1001.0 |
| 20260901133504 | 24 | 136 | 0.0 | 1.6 | 0.00 | 0.00 | 0.00 | 91 | 1001.1 |
| 20260901133005 | 24 | 136 | 0.0 | 1.6 | 0.00 | 0.00 | 0.00 | 91 | 1001.1 |
| 20260901132505 | 24 | 136 | 0.0 | 1.6 | 0.00 | 0.00 | 0.00 | 91 | 1000.9 |
| 20260901132005 | 24 | 136 | 0.0 | 1.6 | 0.00 | 0.00 | 0.00 | 91 | 1001.1 |
| 20260901131005 | 24 | 136 | 0.0 | 1.6 | 0.00 | 0.00 | 0.00 | 91 | 1000.7 |
| 20260901130505 | 24 | 136 | 0.0 | 1.6 | 0.00 | 0.00 | 0.00 | 91 | 1000.7 |